Tracking 17154 objects as of 31-July-2015
HD Live streaming from Space Station

TERRIERS

Track TERRIERS now!
10-day predictions
TERRIERS is classified as:


NORAD ID: 25735
Int'l Code: 1999-026A
Perigee: 449.3 km
Apogee: 456.6 km
Inclination: 97.1 °
Period: 93.5 minutes
Semi major axis: 6823 km
RCS: 0.4968 m2 (medium)
Launch date: May 18, 1999
Source: United States (US)
Your satellite tracking list
Your tracking list is empty





NASA's NSSDC Master Catalog

Two Line Element Set (TLE):
1 25735U 99026A   15212.22379212  .00004119  00000-0  10487-3 0  9995
2 25735 097.1176 019.5888 0005316 015.9879 070.1695 15.40107685900350

Source of the keplerian elements: AFSPC

N2YO: 338